Weather reports worldwide

Advertisment
Orense, Spain (8048): temperature & dewpoint: 11.06.2019 05:00:00 - 17.06.2019 05:00:00 (CEST)Orense, Spain (8048): wind speed: 11.06.2019 05:00:00 - 17.06.2019 05:00:00 (CEST)Orense, Spain (8048): wind direction: 11.06.2019 05:00:00 - 17.06.2019 05:00:00 (CEST)Orense, Spain (8048): reduced air pressure: 11.06.2019 05:00:00 - 17.06.2019 05:00:00 (CEST)Orense, Spain (8048): visibility: 11.06.2019 05:00:00 - 17.06.2019 05:00:00 (CEST)Orense, Spain (8048): precipitation: 11.06.2019 05:00:00 - 17.06.2019 05:00:00 (CEST)
Date & Time tt [°C] td [°C] ff [km/h] ff [kn] dd ppp [hPa] vv [km] rr [mm]
17.06.2019 05:00:00 12,8 9,6 4 2 SSE 1016,9 20 -
17.06.2019 04:00:00 14,0 10,4 4 2 W 1017,1 20 0,0
17.06.2019 03:00:00 15,4 11,4 2 1 E 1017,3 20 0,0
17.06.2019 02:00:00 17,0 11,9 2 1 E 1017,2 20 -
17.06.2019 01:00:00 18,6 12,6 2 1 ESE 1017,0 20 0,0
17.06.2019 00:00:00 19,3 12,1 2 1 W 1017,0 20 0,0
16.06.2019 23:00:00 20,7 12,1 2 1 ESE 1016,8 20 -
16.06.2019 22:00:00 23,1 11,8 5 3 W 1016,0 20 0,0
16.06.2019 21:00:00 25,0 11,5 9 5 W 1015,2 20 0,0
16.06.2019 20:00:00 27,2 12,4 8 4 W 1014,5 20 -
16.06.2019 19:00:00 28,5 12,0 5 3 W 1014,1 20 0,0
16.06.2019 18:00:00 28,5 11,5 11 6 W 1014,5 20 0,0
16.06.2019 17:00:00 28,5 10,7 9 5 WSW 1014,6 20 -
16.06.2019 16:00:00 27,4 10,6 9 5 WSW 1015,0 20 0,0
16.06.2019 15:00:00 25,7 10,3 4 2 NNW 1015,7 20 0,0
16.06.2019 14:00:00 23,5 10,5 4 2 NNW 1017,0 20 -
16.06.2019 13:00:00 21,3 10,1 5 3 W 1017,8 20 0,0
16.06.2019 12:00:00 18,2 9,3 5 3 WSW 1018,9 20 0,0
16.06.2019 11:00:00 14,6 9,0 4 2 E 1019,8 20 -
16.06.2019 10:00:00 11,5 8,2 2 1 SE 1020,6 18 0,0
16.06.2019 09:00:00 8,6 6,6 2 1 S 1020,8 19 0,0
16.06.2019 08:00:00 6,7 5,2 2 1 SSW 1020,8 19 -
16.06.2019 07:00:00 6,8 5,1 2 1 WSW 1020,6 20 0,0
16.06.2019 06:00:00 7,3 5,4 4 2 SW 1020,6 19 0,0
16.06.2019 05:00:00 8,2 6,0 4 2 S 1020,9 19 -
16.06.2019 04:00:00 9,1 6,7 2 1 SSW 1021,0 19 0,0
16.06.2019 03:00:00 10,2 7,3 2 1 S 1021,2 20 0,0
16.06.2019 02:00:00 11,4 7,9 2 1 SW 1021,7 20 -
16.06.2019 01:00:00 12,8 8,1 2 1 W 1021,6 20 0,0
16.06.2019 00:00:00 14,7 8,6 4 2 W 1021,4 20 0,0
15.06.2019 23:00:00 16,9 9,1 2 1 ESE 1020,7 20 -
15.06.2019 22:00:00 18,6 8,8 4 2 SW 1019,9 20 0,0
15.06.2019 21:00:00 20,3 8,9 4 2 W 1019,8 20 0,0
15.06.2019 20:00:00 20,4 8,4 8 4 W 1019,8 20 -
15.06.2019 19:00:00 21,3 8,5 8 4 W 1019,6 20 0,0
15.06.2019 18:00:00 20,8 8,4 4 2 WNW 1020,1 20 0,0
15.06.2019 17:00:00 21,3 8,9 8 4 WNW 1020,4 20 -
15.06.2019 16:00:00 20,3 7,6 4 2 SSW 1020,5 20 0,0
15.06.2019 15:00:00 19,7 7,1 5 3 SSE 1020,8 20 0,0
15.06.2019 14:00:00 19,8 7,2 4 2 E 1021,0 20 -
15.06.2019 13:00:00 18,5 7,3 4 2 ESE 1021,0 20 0,0
15.06.2019 12:00:00 17,6 8,2 5 3 S 1021,1 2,0 0,0
15.06.2019 11:00:00 16,7 9,4 4 2 SE 1021,0 20 -
15.06.2019 10:00:00 15,8 9,5 4 2 NE 1021,0 20 0,0
15.06.2019 09:00:00 14,0 10,0 5 3 ENE 1020,8 20 0,0
15.06.2019 08:00:00 12,7 9,9 4 2 S 1020,6 20 -
15.06.2019 07:00:00 12,9 10,3 2 1 SE 1019,8 20 0,0
15.06.2019 06:00:00 13,2 9,3 4 2 SE 1019,4 20 0,0
15.06.2019 05:00:00 13,3 9,2 4 2 WSW 1019,3 20 -
15.06.2019 04:00:00 13,8 9,2 2 1 S 1019,1 20 0,0
15.06.2019 03:00:00 14,1 9,5 4 2 SE 1019,2 20 0,0
15.06.2019 02:00:00 14,4 9,4 4 2 SE 1019,1 20 -
15.06.2019 01:00:00 14,4 8,6 5 3 SE 1019,0 20 0,0
15.06.2019 00:00:00 14,6 7,4 2 1 SE 1018,5 20 0,0
14.06.2019 23:00:00 15,1 7,4 4 2 SE 1017,9 20 -
14.06.2019 22:00:00 16,5 7,7 4 2 W 1016,9 20 0,0
14.06.2019 21:00:00 17,7 7,4 13 7 SW 1016,1 20 0,0
14.06.2019 20:00:00 18,5 6,7 11 6 WSW 1015,3 20 -
14.06.2019 19:00:00 20,3 7,0 13 7 WSW 1014,7 20 0,0
14.06.2019 18:00:00 20,7 7,0 13 7 SW 1014,4 20 0,0
14.06.2019 17:00:00 20,5 7,5 13 7 WSW 1013,9 20 -
14.06.2019 16:00:00 20,3 7,3 4 2 WSW 1013,7 20 0,0
14.06.2019 15:00:00 19,5 6,6 5 3 NNW 1013,6 20 0,0
14.06.2019 14:00:00 19,8 7,8 8 4 W 1013,6 20 -
14.06.2019 13:00:00 20,2 7,2 8 4 SW 1013,2 20 0,0
14.06.2019 12:00:00 17,9 8,2 4 2 NE 1013,4 20 0,0
14.06.2019 11:00:00 15,5 8,5 5 3 SSE 1014,0 20 -
14.06.2019 10:00:00 12,1 7,8 4 2 SSW 1014,3 20 0,0
14.06.2019 09:00:00 9,3 6,7 2 1 SSW 1014,4 20 0,0
14.06.2019 08:00:00 7,3 5,1 2 1 WSW 1014,3 20 -
14.06.2019 07:00:00 7,4 5,0 2 1 S 1014,3 20 0,0
14.06.2019 06:00:00 8,4 5,9 2 1 SSE 1013,7 20 0,0
14.06.2019 05:00:00 9,5 6,6 4 2 W 1013,2 20 -
14.06.2019 04:00:00 11,0 7,3 2 1 WSW 1013,3 20 0,0
14.06.2019 03:00:00 12,4 7,9 4 2 W 1013,1 20 0,0
14.06.2019 02:00:00 13,1 8,0 2 1 WSW 1013,3 18 -
14.06.2019 01:00:00 13,9 7,6 4 2 W 1013,6 20 0,0
14.06.2019 00:00:00 14,5 8,0 2 1 W 1013,4 20 0,0
13.06.2019 23:00:00 15,1 7,9 4 2 WSW 1013,0 20 -
13.06.2019 22:00:00 16,6 8,0 4 2 WSW 1012,3 20 0,0
13.06.2019 21:00:00 18,8 7,6 5 3 W 1011,7 20 0,0
13.06.2019 20:00:00 19,4 7,2 5 3 WSW 1011,1 20 -
13.06.2019 19:00:00 20,5 7,1 5 3 NE 1010,9 20 0,0
13.06.2019 18:00:00 21,7 6,0 5 3 WSW 1010,8 20 0,0
13.06.2019 17:00:00 21,0 5,7 9 5 W 1011,0 20 -
13.06.2019 16:00:00 21,6 6,7 9 5 W 1010,9 20 0,0
13.06.2019 15:00:00 19,5 6,6 5 3 WNW 1011,2 20 0,0
13.06.2019 14:00:00 18,1 6,6 5 3 W 1011,6 20 -
13.06.2019 13:00:00 18,4 5,2 5 3 NNW 1011,5 20 0,0
13.06.2019 12:00:00 16,2 7,1 5 3 S 1012,0 20 0,0
13.06.2019 11:00:00 13,9 9,1 4 2 NNE 1012,6 17 -
13.06.2019 10:00:00 11,0 6,9 2 1 SSW 1013,1 15 0,0
13.06.2019 09:00:00 9,4 6,5 2 1 S 1013,1 16 0,0
13.06.2019 08:00:00 7,1 4,9 2 1 SSW 1013,1 20 -
13.06.2019 07:00:00 7,2 5,0 4 2 WSW 1013,0 20 0,0
13.06.2019 06:00:00 7,9 5,4 2 1 SSE 1012,7 20 0,0
13.06.2019 05:00:00 8,5 5,9 2 1 WSW 1012,6 20 -
13.06.2019 04:00:00 9,1 6,2 2 1 S 1012,8 20 0,0
13.06.2019 03:00:00 10,6 6,7 2 1 ENE 1012,7 20 0,0
13.06.2019 02:00:00 12,2 7,1 2 1 WSW 1012,8 20 -
13.06.2019 01:00:00 13,6 7,1 2 1 E 1013,1 20 0,0
13.06.2019 00:00:00 14,2 7,0 2 1 NE 1013,4 20 0,0
12.06.2019 23:00:00 14,9 7,4 4 2 ENE 1013,2 20 -
12.06.2019 22:00:00 15,9 7,4 8 4 W 1012,6 20 0,0
12.06.2019 21:00:00 18,0 7,1 8 4 W 1012,3 20 0,0
12.06.2019 20:00:00 19,0 5,8 4 2 N 1012,2 20 -
12.06.2019 19:00:00 19,9 4,4 5 3 W 1012,2 20 0,0
12.06.2019 18:00:00 20,6 5,4 4 2 W 1012,8 20 0,0
12.06.2019 17:00:00 20,4 5,6 5 3 W 1013,3 20 -
12.06.2019 16:00:00 18,9 6,0 5 3 WNW 1014,0 20 0,0
12.06.2019 15:00:00 18,8 4,9 5 3 NNE 1014,4 20 0,0
12.06.2019 14:00:00 17,7 5,9 4 2 NNE 1015,2 20 -
12.06.2019 13:00:00 17,2 4,8 4 2 ENE 1015,9 20 0,0
12.06.2019 12:00:00 16,1 6,2 5 3 E 1016,3 20 0,0
12.06.2019 11:00:00 14,4 6,5 4 2 S 1016,5 20 -
12.06.2019 10:00:00 11,4 6,9 2 1 SE 1017,2 20 0,0
12.06.2019 09:00:00 8,4 5,7 2 1 S 1018,0 20 0,0
12.06.2019 08:00:00 6,6 4,4 2 1 ESE 1018,2 20 -
12.06.2019 07:00:00 6,5 4,3 4 2 SW 1018,2 20 0,0
12.06.2019 06:00:00 7,6 4,9 2 1 WSW 1018,1 20 0,0
12.06.2019 05:00:00 8,7 5,3 2 1 SSW 1018,1 20 -
12.06.2019 04:00:00 10,5 6,3 4 2 SSE 1018,4 20 0,0
12.06.2019 03:00:00 11,5 6,6 4 2 W 1018,7 20 0,0
12.06.2019 02:00:00 11,5 6,2 4 2 W 1019,0 20 -
12.06.2019 01:00:00 12,1 5,9 4 2 WSW 1019,4 20 0,0
12.06.2019 00:00:00 13,1 6,0 4 2 SW 1019,2 20 0,0
11.06.2019 23:00:00 14,7 6,3 4 2 NNE 1018,9 20 -
11.06.2019 22:00:00 16,6 6,1 4 2 NNW 1018,1 20 0,0
11.06.2019 21:00:00 19,3 5,7 5 3 NNE 1017,7 20 0,0
11.06.2019 20:00:00 18,5 5,7 5 3 NNW 1017,8 20 -
11.06.2019 19:00:00 20,8 6,7 8 4 NE 1017,5 20 0,0
11.06.2019 18:00:00 21,2 5,1 5 3 NNW 1017,6 20 0,0
11.06.2019 17:00:00 19,9 6,2 5 3 NNW 1017,8 20 -
11.06.2019 16:00:00 19,8 3,9 8 4 NNE 1017,9 20 0,0
11.06.2019 15:00:00 19,5 4,4 8 4 N 1018,2 20 0,0
11.06.2019 14:00:00 19,3 3,8 5 3 N 1018,8 20 -
11.06.2019 13:00:00 17,6 4,9 8 4 NE 1019,0 20 0,0
11.06.2019 12:00:00 17,0 5,3 5 3 NNE 1018,9 20 0,0
11.06.2019 11:00:00 15,7 5,9 4 2 N 1019,0 20 -
11.06.2019 10:00:00 14,3 7,6 4 2 N 1019,2 20 0,0
11.06.2019 09:00:00 12,7 6,9 4 2 NNW 1019,1 20 0,0
11.06.2019 08:00:00 12,4 7,5 4 2 ENE 1018,7 20 -
11.06.2019 07:00:00 12,6 7,1 2 1 NE 1018,0 20 0,0
11.06.2019 06:00:00 12,8 6,8 2 1 N 1017,7 20 0,0
11.06.2019 05:00:00 13,5 7,0 4 2 NW 1017,8 20 -

tt = temperature
td = dewpoint
ff = wind speed
dd = wind direction
ppp = reduced air pressure
vv = visibility
rr = precipitation

Next stations